Regional Weather Roundup
Issued by NWS

Home | Current Version | Previous Version | Text Only | Print | Product List | Glossary On
Versions: 1 2 3 4 5 6 7 8 9 10 11 12 13 14 15 16 17 18 19 20 21 22 23 24 25 26 27 28 29 30 31 32 33 34 35 36 37 38 39 40 41 42 43 44 45 46 47 48 49 50
000
ASUS43 KTOP 191659
RWRKS

WEATHER ROUNDUP FOR KANSAS
NATIONAL WEATHER SERVICE GOODLAND KS
1200 PM CDT FRI SEP 19 2014

NOTE:  "FAIR" INDICATES FEW OR NO CLOUDS BELOW 12,000 FEET WITH NO
SIGNIFICANT WEATHER AND/OR OBSTRUCTIONS TO VISIBILITY.

KSZ001>006-013>018-027>032-041>047-191800-
NORTHWEST KANSAS

CITY           SKY/WX    TMP DP  RH WIND       PRES   REMARKS
GOODLAND       SUNNY     81  59  47 S20G25    29.95F
HAYS           SUNNY     81  64  57 SW16      29.96F
HILL CITY      SUNNY     82  63  52 SW15G23   29.93F
RUSSELL        SUNNY     82  64  54 S20G26    29.94F
$$

KSZ061>065-074>080-084>089-191800-
SOUTHWEST KANSAS

CITY           SKY/WX    TMP DP  RH WIND       PRES   REMARKS
DODGE CITY     SUNNY     81  61  50 SW17G24   30.00F
ELKHART          N/A     77  61  58 S10         N/A
GARDEN CITY    SUNNY     79  61  53 S14G24    29.99F
GREAT BEND     SUNNY     82  63  51 S17G23    29.97F
LIBERAL        MOSUNNY   81  63  54 S16G22    30.03F
$$

KSZ066>073-081>083-090>101-191800-
SOUTHEAST KANSAS

CITY           SKY/WX    TMP DP  RH WIND       PRES   REMARKS
CHANUTE        CLOUDY    69  67  93 S9        30.03S FOG
COFFEYVILLE    CLOUDY    71  68  90 S8        30.03S
HUTCHINSON     SUNNY     84  66  54 SW12      29.98F
NEWTON         SUNNY     81  66  61 SW10      30.01F
PARSONS        CLOUDY    71  68  90 S7        30.04S FOG
WICHITA INTL   MOSUNNY   84  66  54 S10       29.98F
WICHITA JABRA  SUNNY     82  67  60 VRB7      29.98F
WINFIELD       MOSUNNY   79  69  71 S10       30.01F
$$

KSZ007>012-019>026-033>040-048>060-102>105-191800-
NORTHEAST KANSAS

CITY           SKY/WX    TMP DP  RH WIND       PRES   REMARKS
CONCORDIA      SUNNY     80  67  64 SW12G21   29.94F
EMPORIA        CLOUDY    70  67  90 S12       30.00F
LAWRENCE       CLOUDY    68  64  87 S10       30.01F FOG
OLATHE IND     CLOUDY    67  65  93 S7        30.03S FOG
OLATHE EXE     CLOUDY    66  65  96 S8        30.02S FOG
SALINA         SUNNY     83  67  58 S13       29.95F
TOPEKA BILLARD CLOUDY    70  67  90 S10       29.99F
TOPEKA FORBES  CLOUDY    69  65  86 SE12      29.99F FOG
$$


USA.gov is the U.S. government's official web portal to all federal, state and local government web resources and services.